Regional Weather Roundup
Issued by NWS New Orleans/Baton Rouge, LA

Home | Current Version | Previous Version | Text Only | Print | Product List | Glossary On
Versions: 1 2 3 4 5 6 7 8 9 10 11 12 13 14 15 16 17 18 19 20 21 22 23 24 25 26 27 28 29 30 31 32 33 34 35 36 37 38 39 40 41 42 43 44 45 46 47 48 49 50
086
ASUS44 KLIX 252005
RWRLIX
NEW ORLEANS REGIONAL WEATHER ROUNDUP
NATIONAL WEATHER SERVICE NEW ORLEANS LA
300 PM CDT SAT OCT 25 2014

NOTE: "FAIR" INDICATES FEW OR NO CLOUDS BELOW 12,000 FEET WITH NO
      SIGNIFICANT WEATHER AND/OR OBSTRUCTIONS TO VISIBILITY.
      SKY/WX - SKY CONDITION AND SIGNIFICANT WEATHER.
      TMP - AIR TEMPERATURE.     DP    - DEWPOINT TEMPERATURE.
      RH  - RELATIVE HUMIDITY.   PRES  - PRESSURE.
      HI  - HEAT INDEX.          WCI   - WIND CHILL INDEX.

*  THESE STATIONS ARE NOT NWS OR FAA STATIONS AND ARE NOT UNDER
   NWS QUALITY CONTROL.

LAZ038-040-048-061>063-065>067-069-252100-
SOUTHEAST LOUISIANA

CITY           SKY/WX    TMP DP  RH WIND       PRES   REMARKS
N.O. AUDUBON   NOT AVBL
N.O. INTL ARPT SUNNY     78  52  40 NW7       30.09F
N.O. LAKEFRONT SUNNY     74  54  49 W5        30.09F
N.O. DOWNTOWN*   N/A     77  48  36 NW5       30.09F
SLIDELL        SUNNY     80  53  39 VRB5      30.07F
BATON ROUGE    SUNNY     81  52  36 W7        30.09F
BOOTHVILLE     SUNNY     74  53  48 NE7       30.09F
BELLE CHASSE   SUNNY     77  52  41 S5        30.08F
BOGALUSA*        N/A     83  54  37 N8        30.09F
NEW ROADS*       N/A     80  50  35 NW6       30.10F
GONZALES*        N/A     80  53  39 CALM      30.09F
HAMMOND*       SUNNY     82  50  32 NW6       30.10F
HOUMA*         SUNNY     81  52  36 N9        30.09F
PORT FOURCHON* CLEAR     75  55  50 E7        30.12F

$$

MSZ070-080>082-252100-
SOUTHERN MISSISSIPPI

CITY           SKY/WX    TMP DP  RH WIND       PRES   REMARKS
MCCOMB         SUNNY     80  53  39 NW10      30.09F
GULFPORT       SUNNY     80  53  39 N10       30.06F
BILOXI         SUNNY     80  54  40 N9        30.06F
PASCAGOULA     SUNNY     80  55  42 VRB7      30.06F
STENNIS ARPT*  SUNNY     81  52  36 N6        30.07F

$$

COASTAL OBSERVATIONS
LAKE AND NEARSHORE STATIONS

STATION/POSITION TIME  TEMP    WIND        PRES    WAVE
                       AIR SEA DIR/SP/G            HT/PER
                 (UTC) (F)     (DEG/KT/KT) (MB)    (FT/S)
PASCAGOULA       2000   79     320/  6/  9 1017.4
WAVELAND YACHT   2000   76     350/  6/  7 1017.5
GRAND ISLE       2000   73 72   40/  4/  6 1019.5
SOUTHWEST PASS   2000   77 80              1018.8
NEW CANAL        2000   72 70  340/  2/  4 1019.4
SHELL BEACH      2000   71 67  310/  2/  3 1018.6

OFFSHORE STATIONS

STATION/POSITION TIME  TEMP    WIND        PRES    WAVE
                       AIR SEA DIR/SP/G            HT/PER
                 (UTC) (F)     (DEG/KT/KT) (MB)    (FT/S)
64 S DAUPHIN ISL 1913   72 78   20/ 12/ 14 1018.2    3/ 5

$$




USA.gov is the U.S. government's official web portal to all federal, state and local government web resources and services.